GLO1403 SBPL-SBGR

Flight info

Callsign GLO1403
Flight time N/A
Altitude 36000
Route VUSPU UM654 GEVMI UN741 NISNI UZ38 VUNOX
Aircraft B738/M-SDFGIKLORWX/LB1

Departure

Time 2026-04-29 18:46
Airport Senador Nilo Coelho Airport (SBPL)

Arrival

Time N/A
Airport São Paulo/Guarulhos–Governor André Franco Montoro International Airport (SBGR)
Time Latitude Longitude Altitude Speed Heading
2026-04-29 18:28 -9.36588 -40.56556 1268 ft 0 kts 199°
2026-04-29 18:37 -9.36574 -40.56551 1268 ft 4 kts 203°
2026-04-29 18:37 -9.36556 -40.56537 1268 ft 4 kts 261°
2026-04-29 18:37 -9.36559 -40.56513 1269 ft 2 kts 289°
2026-04-29 18:38 -9.36560 -40.56508 1268 ft 1 kts 289°
2026-04-29 18:38 -9.36561 -40.56507 1268 ft 0 kts 289°
2026-04-29 18:40 -9.36553 -40.56528 1268 ft 7 kts 289°
2026-04-29 18:41 -9.36384 -40.56563 1269 ft 10 kts 333°
2026-04-29 18:41 -9.36347 -40.56627 1272 ft 12 kts 291°
2026-04-29 18:42 -9.36313 -40.56728 1272 ft 18 kts 289°
2026-04-29 18:42 -9.36264 -40.56869 1271 ft 24 kts 289°
2026-04-29 18:42 -9.36210 -40.57024 1270 ft 23 kts 289°
2026-04-29 18:42 -9.36159 -40.57175 1269 ft 22 kts 289°
2026-04-29 18:43 -9.36109 -40.57321 1268 ft 22 kts 289°
2026-04-29 18:43 -9.36061 -40.57463 1269 ft 21 kts 289°
2026-04-29 18:43 -9.36014 -40.57599 1266 ft 20 kts 289°
2026-04-29 18:43 -9.35968 -40.57734 1269 ft 20 kts 289°
2026-04-29 18:44 -9.35924 -40.57862 1269 ft 19 kts 289°
2026-04-29 18:44 -9.35881 -40.57987 1271 ft 19 kts 289°
2026-04-29 18:44 -9.35837 -40.58114 1268 ft 20 kts 289°
2026-04-29 18:44 -9.35806 -40.58229 1270 ft 12 kts 267°
2026-04-29 18:45 -9.35804 -40.58285 1270 ft 6 kts 347°
2026-04-29 18:45 -9.35790 -40.58252 1270 ft 6 kts 109°
2026-04-29 18:45 -9.35809 -40.58195 1269 ft 23 kts 109°
2026-04-29 18:45 -9.35947 -40.57795 1272 ft 95 kts 108°
2026-04-29 18:46 -9.36227 -40.56979 1270 ft 152 kts 109°
2026-04-29 18:46 -9.36632 -40.55833 1469 ft 184 kts 110°
2026-04-29 18:46 -9.37061 -40.54611 2299 ft 186 kts 110°
2026-04-29 18:46 -9.37498 -40.53352 2980 ft 198 kts 109°
2026-04-29 18:47 -9.37976 -40.51956 3239 ft 220 kts 110°
2026-04-29 18:47 -9.38579 -40.50484 3597 ft 232 kts 128°
2026-04-29 18:47 -9.39903 -40.49573 4150 ft 237 kts 163°
2026-04-29 18:47 -9.41609 -40.49521 4495 ft 259 kts 190°
2026-04-29 18:48 -9.43319 -40.50266 5020 ft 275 kts 210°
2026-04-29 18:48 -9.44878 -40.51411 5875 ft 278 kts 215°
2026-04-29 18:48 -9.46388 -40.52653 6682 ft 280 kts 216°
2026-04-29 18:48 -9.47881 -40.53907 7457 ft 283 kts 217°
2026-04-29 18:49 -9.49410 -40.55187 8211 ft 286 kts 216°
2026-04-29 18:49 -9.50961 -40.56476 8935 ft 290 kts 216°
2026-04-29 18:49 -9.52541 -40.57777 9639 ft 294 kts 216°
2026-04-29 18:49 -9.54143 -40.59088 10283 ft 301 kts 216°
2026-04-29 18:50 -9.55843 -40.60469 10468 ft 324 kts 216°
2026-04-29 18:50 -9.57641 -40.61925 10836 ft 337 kts 216°
2026-04-29 18:50 -9.59493 -40.63424 11429 ft 343 kts 216°
2026-04-29 18:50 -9.61364 -40.64936 12098 ft 346 kts 216°
2026-04-29 18:51 -9.63253 -40.66462 12745 ft 349 kts 216°
2026-04-29 18:51 -9.65140 -40.67985 13322 ft 354 kts 216°
2026-04-29 18:51 -9.67108 -40.69573 13889 ft 359 kts 216°
2026-04-29 18:51 -9.69049 -40.71137 14482 ft 363 kts 216°
2026-04-29 18:52 -9.71037 -40.72741 15063 ft 367 kts 216°
2026-04-29 18:52 -9.73042 -40.74356 15603 ft 371 kts 216°
2026-04-29 18:52 -9.75078 -40.75998 16110 ft 376 kts 216°
2026-04-29 18:52 -9.77133 -40.77655 16649 ft 379 kts 216°
2026-04-29 18:53 -9.79209 -40.79329 17173 ft 383 kts 216°
2026-04-29 18:53 -9.81307 -40.81020 17649 ft 387 kts 216°
2026-04-29 18:53 -9.83426 -40.82730 18135 ft 391 kts 216°
2026-04-29 18:53 -9.85566 -40.84456 18634 ft 394 kts 216°
2026-04-29 18:54 -9.87718 -40.86193 19057 ft 398 kts 216°
2026-04-29 18:54 -9.89897 -40.87951 19525 ft 402 kts 216°
2026-04-29 18:54 -9.92093 -40.89723 20016 ft 404 kts 216°
2026-04-29 18:54 -9.94300 -40.91506 20477 ft 407 kts 216°
2026-04-29 18:55 -9.96528 -40.93305 20906 ft 411 kts 216°
2026-04-29 18:55 -9.98772 -40.95117 21348 ft 414 kts 216°
2026-04-29 18:55 -10.00999 -40.96916 21789 ft 416 kts 216°
2026-04-29 18:55 -10.03267 -40.98748 22200 ft 418 kts 216°
2026-04-29 18:56 -10.05551 -41.00594 22613 ft 421 kts 216°
2026-04-29 18:56 -10.07849 -41.02451 23011 ft 424 kts 216°
2026-04-29 18:56 -10.10169 -41.04326 23393 ft 427 kts 216°
2026-04-29 18:56 -10.12502 -41.06213 23766 ft 430 kts 216°
2026-04-29 18:57 -10.14851 -41.08112 24118 ft 433 kts 216°
2026-04-29 18:57 -10.17214 -41.10023 24498 ft 435 kts 216°
2026-04-29 18:57 -10.19583 -41.11940 24887 ft 436 kts 216°
2026-04-29 18:57 -10.21966 -41.13868 25272 ft 437 kts 216°
2026-04-29 18:58 -10.24344 -41.15794 25661 ft 438 kts 216°
2026-04-29 18:58 -10.26724 -41.17721 26032 ft 439 kts 216°
2026-04-29 18:58 -10.29089 -41.19635 26383 ft 441 kts 216°
2026-04-29 18:58 -10.31491 -41.21580 26730 ft 442 kts 216°
2026-04-29 18:59 -10.33899 -41.23530 27068 ft 444 kts 216°
2026-04-29 18:59 -10.36316 -41.25488 27407 ft 445 kts 216°
2026-04-29 18:59 -10.38736 -41.27449 27750 ft 446 kts 216°
2026-04-29 18:59 -10.41164 -41.29417 28073 ft 447 kts 217°
2026-04-29 19:00 -10.43595 -41.31388 28384 ft 448 kts 217°
2026-04-29 19:00 -10.46034 -41.33365 28712 ft 449 kts 217°
2026-04-29 19:00 -10.48478 -41.35347 28992 ft 450 kts 217°
2026-04-29 19:00 -10.50929 -41.37335 29280 ft 451 kts 217°
2026-04-29 19:01 -10.53388 -41.39330 29565 ft 453 kts 217°
2026-04-29 19:01 -10.55853 -41.41330 29850 ft 454 kts 217°
2026-04-29 19:01 -10.58327 -41.43338 30123 ft 455 kts 217°
2026-04-29 19:01 -10.60799 -41.45345 30398 ft 456 kts 217°
2026-04-29 19:02 -10.63284 -41.47362 30646 ft 457 kts 217°
2026-04-29 19:02 -10.64933 -41.48702 30816 ft 458 kts 217°
2026-04-29 19:02 -10.68241 -41.51388 31125 ft 460 kts 217°
2026-04-29 19:02 -10.70750 -41.53427 31365 ft 461 kts 217°
2026-04-29 19:03 -10.73257 -41.55464 31586 ft 462 kts 217°
2026-04-29 19:03 -10.75777 -41.57513 31813 ft 464 kts 217°
2026-04-29 19:03 -10.78301 -41.59565 32025 ft 465 kts 217°
2026-04-29 19:03 -10.80835 -41.61625 32231 ft 466 kts 217°
2026-04-29 19:04 -10.83369 -41.63686 32434 ft 467 kts 217°
2026-04-29 19:04 -10.85911 -41.65755 32660 ft 467 kts 217°
2026-04-29 19:04 -10.88449 -41.67820 32952 ft 466 kts 217°
2026-04-29 19:04 -10.90975 -41.69876 33277 ft 464 kts 217°
2026-04-29 19:05 -10.93493 -41.71927 33585 ft 462 kts 217°
2026-04-29 19:05 -10.96001 -41.73969 33883 ft 461 kts 217°
2026-04-29 19:05 -10.98475 -41.75984 34141 ft 460 kts 217°
2026-04-29 19:05 -11.00968 -41.78015 34398 ft 459 kts 217°
2026-04-29 19:06 -11.03460 -41.80045 34660 ft 458 kts 217°
2026-04-29 19:06 -11.05948 -41.82073 34915 ft 457 kts 217°
2026-04-29 19:06 -11.10906 -41.86115 35421 ft 454 kts 217°
2026-04-29 19:07 -11.13367 -41.88123 35650 ft 454 kts 217°
2026-04-29 19:07 -11.15000 -41.89454 35803 ft 453 kts 217°
2026-04-29 19:07 -11.18292 -41.92140 36011 ft 454 kts 217°
2026-04-29 19:08 -11.23217 -41.96160 36004 ft 452 kts 217°
2026-04-29 19:08 -11.28053 -42.00109 36010 ft 445 kts 217°
2026-04-29 19:09 -11.32883 -42.04055 36017 ft 445 kts 217°
2026-04-29 19:09 -11.37713 -42.08002 36022 ft 445 kts 217°
2026-04-29 19:10 -11.42555 -42.11961 36021 ft 446 kts 217°
2026-04-29 19:10 -11.47393 -42.15918 36021 ft 446 kts 218°
2026-04-29 19:11 -11.52236 -42.19882 36032 ft 447 kts 218°
2026-04-29 19:11 -11.57102 -42.23866 36029 ft 448 kts 218°
2026-04-29 19:12 -11.61943 -42.27831 36028 ft 449 kts 217°
2026-04-29 19:12 -11.66817 -42.31826 36028 ft 449 kts 217°
2026-04-29 19:13 -11.71689 -42.35821 36028 ft 449 kts 217°
2026-04-29 19:13 -11.76563 -42.39819 36029 ft 449 kts 218°
2026-04-29 19:14 -11.81437 -42.43819 36025 ft 449 kts 218°
2026-04-29 19:14 -11.86305 -42.47817 36025 ft 449 kts 218°
2026-04-29 19:15 -11.91165 -42.51810 36029 ft 448 kts 218°
2026-04-29 19:15 -11.96020 -42.55801 36030 ft 448 kts 218°
2026-04-29 19:16 -12.01087 -42.59461 36017 ft 445 kts 205°
2026-04-29 19:16 -12.06667 -42.62115 36025 ft 445 kts 203°
2026-04-29 19:17 -12.12299 -42.64721 36029 ft 444 kts 204°
2026-04-29 19:17 -12.17919 -42.67369 36029 ft 444 kts 204°
2026-04-29 19:18 -12.23526 -42.70041 36024 ft 445 kts 204°
2026-04-29 19:18 -12.29134 -42.72721 36030 ft 445 kts 204°
2026-04-29 19:19 -12.34757 -42.75407 36030 ft 445 kts 204°
2026-04-29 19:19 -12.40373 -42.78091 36028 ft 446 kts 204°
2026-04-29 19:20 -12.46005 -42.80784 36029 ft 447 kts 204°
2026-04-29 19:20 -12.51642 -42.83479 36029 ft 447 kts 204°
2026-04-29 19:21 -12.57246 -42.86159 36039 ft 448 kts 204°
2026-04-29 19:21 -12.60071 -42.87511 36035 ft 448 kts 204°
2026-04-29 19:22 -12.68549 -42.91570 36038 ft 449 kts 204°